Latest Weather Observations for Point Fawcett

IDD60901

Issued at 11:41 am CST Sunday 1 May 2016 (issued every 10 minutes, with the page automatically refreshed every 10 minutes)

About weather observations | Map of Darwin area stations | Latest observations for Darwin area | Other Formats
Station Details ID: 200731 Name: POINT FAWCETT Lat: -11.76 Lon: 130.03 Height: 6.5 m
Data from the previous 72 hours. | See also: Recent months at Point Fawcett
Date/Time
CST
Tmp

°C
App
Tmp
°C
Dew
Point
°C
Rel
Hum
%
Delta-T

°C
Wind Press
QNH
hPa
Press
MSL
hPa
Rain
since
9 am
mm
Dir
 
Spd
km/h
Gust
km/h
Spd
kts
Gust
kts
01/11:30am 33.0 38.3 25.8 66 5.1 ESE 9 15 5 8 1011.2 - 0.0
01/11:00am 32.4 37.9 26.2 70 4.4 SSE 9 15 5 8 1011.5 - 0.0
01/10:30am 31.8 36.7 25.9 71 4.2 SE 11 20 6 11 1011.6 - 0.0
01/10:00am 31.5 35.7 25.4 70 4.3 SSE 13 20 7 11 1011.4 - 0.0
01/09:30am 30.7 36.5 26.6 79 2.9 E 9 15 5 8 1011.7 - 0.0
01/09:00am 29.5 36.1 27.3 88 1.6 E 7 9 4 5 1011.9 1011.8 2.6
01/08:30am 28.1 34.1 26.3 90 1.3 E 7 11 4 6 1011.8 - 2.6
01/08:00am 26.2 32.2 26.0 99 0.1 E 6 7 3 4 1011.4 - 2.6
01/07:30am 25.2 30.3 24.9 98 0.2 ESE 7 9 4 5 1011.2 - 2.6
01/07:00am 24.8 29.2 24.5 98 0.2 E 9 13 5 7 1010.7 - 2.6
01/06:30am 24.8 29.5 24.3 97 0.3 E 7 9 4 5 1010.4 - 2.4
01/06:00am 25.0 29.8 24.5 97 0.3 SE 7 11 4 6 1010.2 1010.1 2.4
01/05:30am 25.4 29.4 25.1 98 0.2 E 13 19 7 10 1010.2 - 2.4
01/05:00am 26.0 29.4 25.8 99 0.1 ESE 19 28 10 15 1010.6 - 2.4
01/04:30am 24.7 29.5 24.5 99 0.1 SSE 7 9 4 5 1010.2 - 2.4
01/04:00am 24.9 30.0 24.7 99 0.1 SE 6 7 3 4 1009.9 - 2.4
01/03:30am 24.9 30.0 24.7 99 0.1 SSE 6 7 3 4 1009.6 - 2.4
01/03:00am 25.1 30.4 24.9 99 0.1 S 6 7 3 4 1009.8 1009.7 2.4
01/02:30am 25.0 30.0 24.8 99 0.1 S 7 9 4 5 1009.9 - 2.4
01/02:00am 24.8 29.7 24.6 99 0.1 SSE 7 9 4 5 1010.2 - 2.4
01/01:30am 24.6 29.4 24.4 99 0.1 SSE 7 7 4 4 1010.0 - 2.4
01/01:00am 24.6 29.3 24.3 98 0.2 SSE 7 7 4 4 1010.1 - 2.4
01/12:30am 24.5 29.1 24.2 98 0.2 SSE 7 9 4 5 1010.4 - 2.4
01/12:00am 24.7 29.5 24.4 98 0.2 SSE 7 7 4 4 1010.6 1010.5 2.4
 
Date/Time
CST
Tmp

°C
App
Tmp
°C
Dew
Point
°C
Rel
Hum
%
Delta-T

°C
Wind Press
QNH
hPa
Press
MSL
hPa
Rain
since
9 am
mm
Dir
 
Spd
km/h
Gust
km/h
Spd
kts
Gust
kts
30/11:30pm 24.8 29.5 24.3 97 0.3 SSE 7 7 4 4 1010.6 - 2.4
30/11:00pm 24.9 29.8 24.4 97 0.3 S 6 7 3 4 1010.6 - 2.4
30/10:30pm 25.0 29.9 24.3 96 0.5 S 6 7 3 4 1010.8 - 2.4
30/10:00pm 25.1 30.0 24.4 96 0.5 SSE 6 7 3 4 1011.0 - 2.4
30/09:30pm 25.2 30.1 24.3 95 0.6 S 6 7 3 4 1010.7 - 2.4
30/09:00pm 25.4 30.3 24.4 94 0.7 SSE 6 7 3 4 1010.7 1010.6 2.4
30/08:30pm 25.9 31.0 24.7 93 0.8 S 6 9 3 5 1010.4 - 2.4
30/08:00pm 26.3 31.3 24.5 90 1.2 S 6 9 3 5 1010.1 - 2.4
30/07:30pm 27.2 32.0 24.5 85 1.9 SSW 7 9 4 5 1010.0 - 2.4
30/07:00pm 28.0 32.9 24.6 82 2.4 SSW 7 11 4 6 1009.7 - 2.4
30/06:30pm 29.2 33.9 25.0 78 2.9 SSW 9 15 5 8 1009.4 - 2.4
30/06:00pm 30.2 34.4 25.3 75 3.5 SSW 13 19 7 10 1009.0 1008.9 2.4
30/05:30pm 31.4 36.5 26.2 74 3.7 SSW 11 17 6 9 1008.7 - 2.4
30/05:00pm 31.4 36.2 25.7 71 4.1 SSW 11 17 6 9 1008.5 - 2.4
30/04:30pm 31.8 36.3 25.2 68 4.7 SSW 11 17 6 9 1008.3 - 2.4
30/04:00pm 32.4 37.5 26.2 70 4.4 SSW 11 17 6 9 1008.4 - 2.4
30/03:30pm 31.5 36.2 26.7 75 3.5 SW 15 22 8 12 1008.5 - 2.4
30/03:00pm 31.4 37.0 26.9 77 3.2 WSW 11 15 6 8 1008.8 1008.7 2.4
30/02:30pm 30.5 36.6 27.1 82 2.5 W 9 11 5 6 1009.4 - 2.4
30/02:00pm 28.1 34.9 26.7 92 1.0 N 4 7 2 4 1009.9 - 2.4
30/01:30pm 27.1 30.6 25.5 91 1.1 NW 17 28 9 15 1010.4 - 2.4
30/01:00pm 29.6 35.1 25.6 79 2.8 E 7 11 4 6 1010.9 - 0.0
30/12:30pm 29.8 34.9 25.5 78 3.0 S 9 15 5 8 1011.2 - 0.0
30/12:00pm 30.1 35.6 25.6 77 3.2 W 7 13 4 7 1011.8 1011.7 0.0
30/11:30am 30.2 35.6 25.5 76 3.3 SW 7 13 4 7 1012.2 - 0.0
30/11:00am 30.6 36.7 26.5 79 2.9 SW 7 9 4 5 1012.7 - 0.0
30/10:30am 30.1 35.7 25.8 78 3.1 W 7 11 4 6 1012.9 - 0.0
30/10:00am 30.8 36.6 25.8 74 3.6 NW 6 9 3 5 1012.9 - 0.0
30/09:30am 30.7 37.0 26.0 76 3.3 SW 4 9 2 5 1012.7 - 0.0
30/09:00am 29.6 37.1 26.6 84 2.1 CALM 0 0 0 0 1012.5 1012.4 0.0
30/08:30am 28.2 35.5 28.0 99 0.1 SSW 6 7 3 4 1012.4 - 0.0
30/08:00am 25.8 31.5 25.6 99 0.1 SSW 6 7 3 4 1012.0 - 0.0
30/07:30am 24.2 28.7 24.0 99 0.1 SSW 7 7 4 4 1011.8 - 0.0
30/07:00am 23.9 28.2 23.7 99 0.1 SSW 7 9 4 5 1011.5 - 0.0
30/06:30am 24.0 28.4 23.8 99 0.1 SSW 7 9 4 5 1011.2 - 0.0
30/06:00am 24.2 29.3 24.0 99 0.1 SSW 4 7 2 4 1010.9 1010.8 0.0
30/05:30am 24.4 30.4 24.2 99 0.1 CALM 0 0 0 0 1010.7 - 0.0
30/05:00am 24.6 30.7 24.4 99 0.1 CALM 0 0 0 0 1010.4 - 0.0
30/04:30am 24.4 29.2 24.2 99 0.1 SSW 6 7 3 4 1010.3 - 0.0
30/04:00am 24.2 30.0 24.0 99 0.1 CALM 0 6 0 3 1010.1 - 0.0
30/03:30am 24.3 29.4 24.1 99 0.1 SW 4 7 2 4 1010.1 - 0.0
30/03:00am 24.1 28.7 23.8 98 0.2 SSW 6 7 3 4 1010.3 1010.2 0.0
30/02:30am 24.0 29.3 23.7 98 0.2 SE 2 7 1 4 1010.4 - 0.0
30/02:00am 24.0 29.6 23.5 97 0.3 CALM 0 0 0 0 1010.5 - 0.0
30/01:30am 24.0 29.6 23.5 97 0.3 CALM 0 0 0 0 1010.6 - 0.0
30/01:00am 24.1 29.7 23.6 97 0.3 CALM 0 0 0 0 1010.9 - 0.0
30/12:30am 24.2 29.0 23.5 96 0.5 E 4 6 2 3 1011.1 - 0.0
30/12:00am 24.4 28.9 23.7 96 0.5 ESE 6 7 3 4 1011.5 1011.4 0.0
 
Date/Time
CST
Tmp

°C
App
Tmp
°C
Dew
Point
°C
Rel
Hum
%
Delta-T

°C
Wind Press
QNH
hPa
Press
MSL
hPa
Rain
since
9 am
mm
Dir
 
Spd
km/h
Gust
km/h
Spd
kts
Gust
kts
29/11:30pm 24.6 29.3 23.9 96 0.5 ESE 6 6 3 3 1011.6 - 0.0
29/11:00pm 24.8 29.5 23.9 95 0.6 ESE 6 6 3 3 1011.9 - 0.0
29/10:30pm 25.0 29.8 24.1 95 0.6 ESE 6 7 3 4 1012.0 - 0.0
29/10:00pm 25.3 30.0 24.3 94 0.7 E 7 9 4 5 1012.3 - 0.0
29/09:30pm 25.5 30.2 24.3 93 0.8 E 7 7 4 4 1012.4 - 0.0
29/09:00pm 25.8 30.6 24.4 92 1.0 E 7 7 4 4 1012.2 1012.1 0.0
29/08:30pm 26.1 32.2 24.5 91 1.1 CALM 0 0 0 0 1011.7 - 0.0
29/08:00pm 26.5 32.6 24.5 89 1.4 CALM 0 0 0 0 1011.4 - 0.0
29/07:30pm 27.1 33.3 24.6 86 1.7 CALM 0 0 0 0 1011.2 - 0.0
29/07:00pm 28.2 34.5 24.8 82 2.4 CALM 0 0 0 0 1010.9 - 0.0
29/06:30pm 29.7 35.4 25.0 76 3.3 NW 4 7 2 4 1010.6 - 0.0
29/06:00pm 30.3 36.1 25.1 73 3.7 NNW 4 7 2 4 1010.4 1010.3 0.0
29/05:30pm 30.5 35.9 25.1 73 3.8 N 6 9 3 5 1010.1 - 0.0
29/05:00pm 31.5 36.2 25.6 71 4.2 NNE 11 19 6 10 1009.7 - 0.0
29/04:30pm 32.6 37.0 24.4 62 5.8 SSE 9 15 5 8 1009.5 - 0.0
29/04:00pm 32.6 36.7 24.6 62 5.6 ESE 11 17 6 9 1009.4 - 0.0
29/03:30pm 32.4 36.6 24.7 64 5.4 S 11 20 6 11 1009.1 - 0.0
29/03:00pm 32.6 36.4 24.1 61 5.9 SSE 11 20 6 11 1009.5 1009.4 0.0
29/02:30pm 32.5 36.1 23.7 59 6.1 S 11 20 6 11 1009.7 - 0.0
29/02:00pm 32.7 36.4 24.5 62 5.8 S 13 20 7 11 1009.8 - 0.0
29/01:30pm 33.0 37.4 25.0 63 5.7 SSE 11 17 6 9 1010.0 - 0.0
29/01:00pm 32.1 35.6 24.9 65 5.1 S 15 20 8 11 1010.4 - 0.0
29/12:30pm 32.6 37.4 25.7 67 4.9 S 11 19 6 10 1010.8 - 0.0
29/12:00pm 31.2 35.4 25.3 71 4.2 SSW 13 19 7 10 1011.4 1011.3 0.0
29/11:30am 31.5 36.2 25.6 71 4.2 SSW 11 19 6 10 1011.9 - 0.0
29/11:00am 31.4 36.8 26.0 73 3.9 SW 9 15 5 8 1012.3 - 0.0
29/10:30am 31.3 36.7 25.4 71 4.2 S 7 11 4 6 1012.5 - 0.0
29/10:00am 30.7 36.8 26.2 77 3.2 W 6 9 3 5 1012.4 - 0.0
29/09:30am 31.0 37.9 26.3 76 3.4 SSE 2 7 1 4 1012.3 - 0.0
29/09:00am 29.9 36.1 26.3 81 2.6 SE 6 7 3 4 1012.1 1012.0 6.6
29/08:30am 28.6 36.0 27.0 91 1.1 SE 2 7 1 4 1011.8 - 6.6
29/08:00am 27.2 33.8 27.0 99 0.1 ESE 6 7 3 4 1011.7 - 6.6
29/07:30am 25.8 31.2 25.5 98 0.2 SE 7 9 4 5 1011.5 - 6.6
29/07:00am 25.5 30.6 25.0 97 0.3 ESE 7 9 4 5 1011.2 - 6.6
29/06:30am 25.1 29.9 24.4 96 0.5 ESE 7 7 4 4 1010.9 - 6.6
29/06:00am 25.4 30.3 24.7 96 0.5 SE 7 9 4 5 1010.6 1010.5 6.6
29/05:30am 25.6 30.5 24.7 95 0.6 SE 7 7 4 4 1010.4 - 6.6
29/05:00am 25.9 31.0 25.0 95 0.6 SE 7 7 4 4 1010.3 - 6.6
29/04:30am 26.1 31.5 25.1 94 0.7 E 6 7 3 4 1010.2 - 6.6
29/04:00am 26.4 32.9 25.0 92 1.0 CALM 0 0 0 0 1010.2 - 6.6
29/03:30am 27.0 33.0 24.8 88 1.5 N 2 6 1 3 1010.3 - 6.6
29/03:00am 28.2 33.6 25.4 85 2.0 N 7 11 4 6 1010.4 1010.3 6.6
29/02:30am 28.3 33.4 25.5 85 2.0 N 9 11 5 6 1010.6 - 6.6
29/02:00am 27.6 32.5 25.8 90 1.3 N 11 15 6 8 1010.8 - 6.6
29/01:30am 26.5 32.1 25.8 96 0.5 NNE 7 13 4 7 1011.1 - 6.6
29/01:00am 25.8 31.1 25.3 97 0.3 NE 7 11 4 6 1011.4 - 6.6
29/12:30am 25.5 30.6 25.0 97 0.3 ENE 7 7 4 4 1011.5 - 6.6
29/12:00am 25.3 30.3 24.8 97 0.3 ESE 7 9 4 5 1011.5 1011.4 6.6
 
Date/Time
CST
Tmp

°C
App
Tmp
°C
Dew
Point
°C
Rel
Hum
%
Delta-T

°C
Wind Press
QNH
hPa
Press
MSL
hPa
Rain
since
9 am
mm
Dir
 
Spd
km/h
Gust
km/h
Spd
kts
Gust
kts
28/11:30pm 25.2 30.0 24.5 96 0.5 E 7 7 4 4 1011.6 - 6.6
28/11:00pm 25.0 29.6 24.1 95 0.6 ESE 7 7 4 4 1011.6 - 6.6
28/10:30pm 25.2 30.0 24.2 94 0.7 ESE 6 7 3 4 1011.8 - 6.6
28/10:00pm 25.8 30.8 24.8 94 0.7 E 7 9 4 5 1011.9 - 6.6
28/09:30pm 26.4 32.0 25.4 94 0.7 E 6 7 3 4 1011.7 - 6.6
28/09:00pm 26.1 32.6 25.1 94 0.7 CALM 0 6 0 3 1011.4 1011.3 6.6
28/08:30pm 26.0 32.2 24.6 92 1.0 CALM 0 6 0 3 1010.9 - 6.6
28/08:00pm 26.3 32.4 24.5 90 1.2 CALM 0 0 0 0 1010.6 - 6.6
28/07:30pm 26.8 32.9 24.5 87 1.6 CALM 0 0 0 0 1010.3 - 6.6
28/07:00pm 28.2 34.5 24.8 82 2.4 CALM 0 0 0 0 1010.0 - 6.6
28/06:30pm 29.6 34.2 24.2 73 3.8 N 7 9 4 5 1009.9 - 6.6
28/06:00pm 31.1 35.8 25.0 70 4.3 N 9 11 5 6 1009.6 1009.5 6.6
28/05:30pm 31.0 35.5 24.6 68 4.5 N 9 13 5 7 1009.3 - 6.6
28/05:00pm 31.4 36.8 26.0 73 3.9 N 9 13 5 7 1009.0 - 6.6
28/04:30pm 30.7 34.9 24.8 71 4.1 N 11 13 6 7 1008.9 - 6.6
28/04:00pm 31.7 36.3 25.3 69 4.5 N 11 17 6 9 1008.9 - 6.6
28/03:30pm 31.5 34.9 24.6 67 4.8 N 15 20 8 11 1008.8 - 6.6
28/03:00pm 31.9 36.5 26.0 71 4.2 NNE 13 20 7 11 1009.0 1008.9 6.6
28/02:30pm 30.1 33.6 25.4 76 3.3 N 17 22 9 12 1009.4 - 6.6
28/02:00pm 29.5 33.7 25.3 78 3.0 N 13 19 7 10 1009.8 - 6.6
28/01:30pm 28.5 33.5 26.5 89 1.4 NNE 13 20 7 11 1010.0 - 6.6
28/01:00pm 26.1 28.4 23.4 85 1.8 NE 17 32 9 17 1010.7 - 5.8
28/12:30pm 29.7 34.0 23.6 69 4.2 SSW 7 15 4 8 1010.7 - 0.0
28/12:00pm 32.4 37.0 26.0 69 4.6 NNW 13 17 7 9 1010.9 1010.8 0.0

Latest Capital City Observations: Canberra | Sydney | Melbourne | Brisbane | Adelaide | Perth | Hobart | Darwin

Other Formats:

Comma delimited format used in spreadsheet applications
http://www.bom.gov.au/fwo/IDD60901/IDD60901.94122.axf

JavaScript Object Notation format (JSON) in row-major order
http://www.bom.gov.au/fwo/IDD60901/IDD60901.94122.json